Vertical_Velocity
-1 -1 2 1 -1 -3 -0 -2 -0 1 -2 -1 -3 0 -1 -0 -7 -6 -1 -1 -3 -2 -0 -4 -2 0 -2 1 0 2 -2 -6 -5 -4 -1 0 -0 -1 -2 1 -2 1 1 -0 0 0 -8 -2 -0 -2 -0 -3 3 2
-1 -1 1 2 -1 -2 2 -1 -0 1 -0 -1 -2 -3 1 -4 -3 -0 -4 -0 2 4 6 4 3 1 1 -4 -3 1 3 0 2 2 2 0 -1 2 1 -6 1 -5 -4 0 -5 -8 -1 -0 4 4 -1 2 2 -1
2 1 -1 2 -1 -1 -1 -0 -1 -0 0 -1 -1 -0 2 -4 1 2 -6 -10 -6 -2 1 2 2 3 5 1 -1 -5 3 3 3 3 1 -1 3 3 1 -2 2 -1 1 -5 3 5 3 3 3 -1 1 1 -2 1
2 -1 1 -3 0 -1 0 0 1 1 -0 1 -0 -1 -0 -0 5 -5 6 3 -2 -4 -8 -4 1 3 4 1 1 1 2 -1 3 2 0 1 8 3 -1 -2 -1 15 3 1 -4 4 0 1 3 1 1 -0 -0 -3
2 3 5 -5 5 2 -0 1 -0 1 1 1 2 2 1 -2 -3 -5 -0 1 -3 4 -5 -9 2 6 5 -0 -1 -1 -1 0 -2 -2 0 3 -0 3 -0 -1 -1 4 3 3 -4 1 1 4 -1 -1 -1 -0 -1 4
-1 11 8 -4 -2 7 -1 -2 0 -0 1 2 0 0 -0 2 0 -1 -11 -3 3 1 -1 -13 -14 2 -0 0 0 0 -2 -1 1 -1 1 -3 4 3 -0 -11 11 3 1 -0 -2 -1 4 -1 3 -1 2 0 2 0
16 -5 7 -3 7 -3 6 0 -0 3 2 4 2 1 3 -1 1 3 1 -3 7 8 5 -2 -17 -3 -2 -0 1 -1 -0 -2 1 -2 -4 3 6 4 -5 -6 -2 -1 1 1 1 -2 3 4 -0 1 0 1 -3 -0
1 0 8 0 6 -7 16 -7 1 4 1 -0 1 2 1 -3 -3 -3 0 -0 7 10 6 -4 -6 -4 3 0 -3 -3 -3 -2 -3 1 -1 1 0 4 -6 0 -0 -3 -2 4 2 -0 -1 -0 1 -1 -5 -2 1 2
8 17 -2 15 -0 2 19 -0 -7 1 0 -4 2 3 2 -1 -6 -2 3 5 6 12 5 -4 2 1 4 4 -1 -2 -5 -3 -7 -2 1 -2 0 -3 2 2 2 -1 -2 0 3 2 1 -0 -3 -2 -4 1 -1 5
-7 6 9 6 27 -1 24 3 -2 2 -5 5 2 3 0 -10 5 10 -7 -7 -8 -3 -8 -11 2 4 4 4 -3 -3 -1 -0 2 -2 1 -3 -5 2 -0 -1 1 1 -1 -1 1 6 4 3 -3 -1 -3 -3 -3 1
0 -2 -1 12 3 26 16 3 1 -9 -0 -4 5 1 1 6 12 7 3 0 2 -2 -4 -3 -0 -3 5 2 -0 1 -0 -2 1 -1 -0 0 0 0 0 1 2 1 2 0 0 -0 -0 -4 -5 -5 -0 -0 1 1
2 4 -5 0 8 15 7 8 -8 4 -6 4 7 11 11 10 10 2 -1 1 -2 -1 1 -2 -1 5 5 3 0 -1 -2 -2 -1 0 -3 -1 -1 -0 1 3 3 1 2 3 2 2 -0 -3 -3 -3 -1 2 1 1
2 -1 3 -1 6 21 40 11 0 -2 13 7 8 28 19 -0 3 -5 -2 -8 -10 5 -5 -0 -3 -2 -0 5 2 -0 0 1 1 0 -2 -1 -6 -2 1 1 3 0 1 0 2 -1 -3 -3 -0 -0 2 1 1 2
1 2 2 1 3 19 29 23 2 4 16 27 15 10 -6 1 -7 -11 1 -3 1 6 6 5 2 -1 -1 7 1 -0 3 -2 1 -3 -2 -4 -0 1 1 1 0 3 1 -1 -2 -2 -1 -3 1 -0 -1 0 2 2
1 -3 2 7 11 17 27 8 13 17 5 24 11 -4 -6 0 -7 1 4 -1 1 7 4 8 4 2 3 2 0 1 -1 -2 -3 -2 -3 0 -1 2 3 3 2 -1 -2 -3 -4 -3 -0 -1 -1 2 2 1 1 2
12 4 -3 6 9 28 26 34 12 21 9 14 5 -9 0 -7 5 0 6 12 14 4 10 8 4 -0 2 1 -1 -1 -1 -1 -2 1 1 2 2 3 1 1 0 -3 -5 -4 -3 -3 -2 -1 -1 1 3 3 2 2
4 -9 9 11 19 11 17 16 12 8 19 -5 -8 -0 1 -3 1 7 15 10 7 6 7 9 -4 0 2 -1 -3 -2 -7 1 1 3 3 1 -0 -1 -1 -2 -1 -1 -2 -2 -1 -1 -1 -1 0 -0 1 3 2 3
-3 9 16 18 12 11 7 5 14 7 -12 -6 -3 4 -3 -2 4 10 4 -0 4 8 12 8 6 4 -0 -1 -7 -1 2 3 2 3 2 1 -0 -0 -3 -2 0 -1 -1 -1 -3 -2 -3 -3 -1 -1 0 2 3 4
13 20 8 9 13 5 4 9 11 -7 -1 -1 -2 1 5 6 6 4 -1 3 9 4 5 3 2 -3 -1 -1 3 5 4 2 5 5 4 0 -1 -2 -1 0 -1 -1 -1 -2 0 -1 -1 -0 -2 -1 0 0 -1 3
11 11 7 10 12 8 15 9 2 9 -5 -4 2 4 8 4 0 3 10 9 6 7 6 1 -1 0 2 6 4 3 3 0 1 3 4 1 -0 1 -0 -0 -0 -1 -0 1 3 0 -0 4 3 2 4 1 -2 -0
13 5 12 9 6 15 16 3 4 2 5 6 3 5 1 1 1 3 5 5 2 2 2 2 2 5 6 4 4 2 0 -0 -2 -3 -4 0 2 0 -1 -2 -3 -2 -3 -3 -2 1 2 -2 -2 1 -2 -0 1 1
5 10 11 10 19 15 9 2 4 4 4 2 2 5 -0 2 4 2 3 2 1 3 4 4 2 3 3 2 2 1 -0 -0 1 0 -2 -4 -1 5 4 -2 -2 -1 1 -4 -3 -4 -2 -2 -2 -1 -3 -1 1 1
12 15 10 17 17 8 1 2 1 8 5 1 0 2 -0 1 2 3 -0 2 2 3 3 5 3 2 1 1 2 2 1 0 -1 -2 1 3 1 -4 -1 -1 -3 -5 -1 4 1 -1 -3 -2 0 -1 -2 0 -0 0
11 13 12 5 3 3 2 2 2 4 2 2 1 -0 -0 2 2 2 -1 2 -0 2 -1 -1 -0 0 2 1 -0 0 2 1 -0 -5 -5 -1 5 5 1 0 -1 -3 -5 -4 -3 -0 -1 -3 -1 -1 -0 0 3 1
8 1 2 1 3 4 2 -1 1 1 0 1 2 2 0 3 3 1 1 0 2 1 -1 0 3 1 -0 -0 -1 -2 -3 -1 1 1 -5 -5 -1 2 2 2 2 -6 -3 -2 -0 -1 1 0 2 3 2 1 2 0
1 3 1 5 5 3 1 -0 0 1 3 4 2 2 2 1 1 -0 -1 1 1 -0 -1 -1 -1 -2 -3 -2 -1 0 -1 -1 -0 -3 -4 -5 -3 -5 -5 -7 -4 7 1 -2 -4 -5 -4 -1 0 -1 1 4 5 0
2 -0 -1 1 2 -0 -0 2 3 4 3 1 1 2 1 0 -1 -0 1 -1 0 -1 -0 -1 -2 -1 1 1 -1 -3 -3 -3 -4 -4 -4 -6 -5 -7 -6 -7 -5 -1 -0 -3 -4 -3 -6 -3 -2 -1 1 6 1 -2
2 1 2 2 3 3 4 4 3 1 1 1 2 0 -0 -1 -0 0 1 1 -0 -1 -1 -1 -1 -1 -3 -4 -2 -1 -1 -2 -3 -3 -4 -12 -8 1 -2 -2 -1 -3 -5 -2 -4 -2 -2 -1 -4 -4 -1 0 2 2
-2 -0 3 1 5 4 2 2 1 1 2 1 -1 -0 -1 -0 0 1 1 0 0 0 -2 -1 1 -2 -6 -8 -6 -2 -2 -2 0 3 3 3 6 3 1 1 -0 0 -0 2 1 -1 2 -0 -1 -3 1 1 1 1
1 3 3 2 3 1 0 1 1 0 1 -0 -1 -1 -1 -0 1 1 -0 0 0 -2 -2 -2 -1 -1 0 -0 -5 -8 -5 -5 -4 -4 -3 -1 -1 0 -0 -1 -0 1 -0 -2 -2 1 3 4 4 2 1 1 -0 0
2 2 1 1 0 -0 0 1 2 0 -2 -1 0 -1 1 0 -0 -0 0 -1 -2 -3 -1 -2 -3 -1 -2 1 4 6 3 -0 0 -2 -4 -4 -3 -3 -2 -1 2 0 -4 -4 -4 -4 0 1 -1 -0 -0 0 1 1
3 1 0 -1 -2 -1 -1 -1 -1 1 2 -1 -1 1 0 0 -0 -1 -1 -2 -2 -3 -2 -1 -1 -0 -0 -1 -3 -4 -5 -5 -4 -3 2 2 -1 -2 -2 -1 -3 -0 0 -1 -1 -0 0 -1 -2 -1 -0 -0 0 0
-2 -2 -0 -0 -0 1 1 2 1 -2 -1 0 0 -0 -2 -2 -2 -1 -1 -1 -1 -1 -1 -1 -2 -2 -2 0 -0 -2 -5 -5 -4 -3 -3 -2 -1 -0 -1 -1 -1 -2 -2 -1 0 1 0 0 -0 -1 -1 -0 0 1
Height
3142 3142 3141 3141 3140 3140 3140 3140 3140 3141 3141 3139 3138 3136 3133 3129 3125 3122 3118 3114 3111 3106 3103 3099 3094 3091 3086 3080 3076 3073 3070 3065 3061 3058 3054 3052 3048 3046 3040 3038 3035 3032 3028 3024 3022 3019 3012 3009 3007 3006 3003 2997 2995 2992
3135 3136 3136 3134 3134 3134 3134 3135 3136 3135 3135 3134 3133 3131 3129 3125 3123 3120 3115 3109 3105 3103 3101 3095 3091 3087 3081 3075 3072 3068 3067 3063 3060 3056 3054 3049 3046 3042 3038 3035 3030 3027 3028 3024 3020 3011 3006 3004 3001 2999 2995 2993 2991 2989
3128 3129 3130 3129 3129 3129 3129 3130 3130 3130 3129 3128 3128 3127 3125 3121 3118 3116 3113 3108 3101 3093 3092 3090 3085 3080 3074 3070 3068 3066 3063 3060 3056 3054 3051 3047 3044 3036 3034 3029 3024 3020 3017 3013 3011 3004 3002 2998 2995 2992 2991 2989 2986 2984
3121 3122 3122 3123 3122 3123 3124 3124 3124 3124 3124 3123 3122 3121 3120 3117 3113 3110 3107 3105 3101 3094 3085 3082 3078 3073 3069 3065 3061 3060 3058 3054 3052 3048 3045 3041 3036 3031 3025 3022 3016 3015 3008 3005 3001 3000 2997 2993 2991 2988 2985 2983 2981 2979
3112 3113 3114 3115 3115 3115 3117 3117 3118 3117 3117 3116 3115 3114 3113 3111 3107 3103 3099 3099 3096 3094 3083 3075 3072 3068 3063 3060 3056 3056 3053 3050 3046 3041 3037 3034 3027 3023 3017 3012 3008 3006 3003 3000 2997 2995 2992 2990 2986 2982 2979 2977 2975 2973
3103 3104 3106 3107 3107 3107 3108 3109 3109 3110 3109 3109 3108 3106 3106 3104 3101 3097 3091 3091 3087 3084 3077 3070 3064 3060 3057 3055 3053 3050 3048 3044 3041 3036 3030 3024 3021 3019 3011 3004 3004 3000 2998 2994 2993 2989 2987 2984 2981 2977 2975 2971 2968 2966
3093 3095 3095 3097 3098 3099 3099 3100 3101 3101 3102 3102 3100 3099 3098 3093 3093 3091 3088 3084 3080 3076 3071 3063 3058 3055 3054 3051 3048 3045 3041 3038 3034 3028 3020 3016 3013 3011 3002 2998 2997 2995 2992 2989 2986 2984 2982 2978 2975 2972 2969 2965 2962 2959
3083 3085 3086 3087 3089 3089 3090 3090 3092 3092 3093 3092 3090 3089 3087 3084 3081 3079 3080 3076 3072 3069 3064 3059 3050 3047 3047 3044 3041 3037 3033 3029 3023 3015 3011 3007 3004 3001 2995 2993 2990 2988 2985 2984 2981 2978 2975 2972 2969 2966 2963 2959 2955 2951
3072 3074 3076 3077 3078 3079 3080 3079 3081 3083 3082 3079 3080 3079 3077 3074 3070 3069 3068 3066 3061 3064 3053 3046 3042 3040 3035 3035 3032 3027 3023 3016 3011 3005 3003 3001 2996 2994 2989 2986 2983 2980 2979 2977 2974 2972 2969 2965 2962 2959 2956 2952 2946 2943
3062 3063 3065 3067 3067 3069 3069 3069 3070 3072 3070 3071 3071 3070 3064 3063 3062 3059 3053 3051 3045 3041 3034 3030 3030 3030 3033 3029 3024 3022 3014 3009 3001 2997 2994 2989 2985 2985 2981 2978 2976 2974 2972 2970 2968 2966 2962 2958 2954 2951 2947 2941 2936 2933
3051 3053 3054 3055 3057 3058 3058 3059 3059 3058 3059 3060 3059 3057 3054 3052 3049 3047 3043 3040 3035 3027 3019 3018 3019 3021 3022 3022 3019 3018 3010 3005 2998 2994 2991 2982 2978 2977 2974 2972 2970 2968 2966 2963 2961 2958 2953 2949 2946 2941 2937 2931 2927 2923
3038 3041 3043 3044 3046 3048 3047 3046 3045 3047 3048 3050 3050 3046 3043 3041 3038 3039 3032 3026 3021 3017 3009 3009 3010 3014 3015 3014 3012 3008 3005 3000 2993 2988 2986 2976 2971 2970 2968 2966 2964 2962 2959 2957 2953 2949 2945 2942 2936 2930 2924 2919 2916 2912
3024 3025 3028 3031 3033 3034 3034 3032 3034 3036 3038 3038 3037 3035 3031 3028 3024 3020 3016 3012 3010 3006 3004 3002 3004 3006 3006 3006 3003 3001 2995 2991 2986 2982 2975 2968 2963 2961 2960 2958 2956 2954 2951 2949 2945 2941 2936 2929 2923 2916 2911 2908 2905 2903
3011 3011 3013 3017 3020 3023 3022 3021 3021 3025 3027 3027 3024 3019 3016 3010 3005 3005 3005 3004 3003 2998 2997 2997 2998 2999 2998 2997 2995 2991 2987 2983 2977 2971 2964 2958 2956 2955 2953 2950 2947 2945 2942 2939 2935 2930 2923 2915 2909 2904 2900 2897 2895 2892
2995 2997 2999 3001 3006 3009 3008 3008 3012 3013 3013 3014 3010 3000 2994 2997 2997 2999 2998 2995 2991 2989 2991 2990 2989 2991 2989 2988 2985 2982 2979 2972 2966 2959 2955 2953 2950 2948 2945 2942 2939 2936 2933 2928 2922 2915 2908 2903 2898 2894 2890 2886 2883 2880
2984 2983 2986 2989 2990 2993 2994 2997 2998 2999 2998 2998 2988 2985 2987 2989 2990 2990 2987 2983 2982 2982 2982 2982 2980 2980 2978 2977 2973 2970 2967 2958 2953 2951 2948 2944 2942 2939 2937 2934 2930 2925 2920 2914 2908 2902 2897 2892 2887 2883 2880 2876 2872 2868
2975 2975 2980 2981 2980 2982 2985 2985 2985 2985 2984 2977 2973 2975 2979 2980 2980 2979 2976 2975 2975 2975 2975 2974 2972 2971 2967 2964 2962 2958 2951 2948 2945 2942 2939 2936 2934 2931 2928 2923 2918 2912 2906 2901 2895 2890 2885 2881 2876 2872 2869 2865 2861 2858
2967 2970 2970 2970 2971 2971 2971 2972 2973 2971 2968 2967 2967 2967 2967 2967 2966 2965 2965 2968 2969 2967 2966 2965 2963 2959 2957 2952 2949 2947 2943 2940 2938 2935 2932 2929 2925 2921 2916 2911 2905 2899 2894 2889 2884 2879 2874 2870 2865 2861 2857 2853 2849 2846
2959 2959 2959 2960 2961 2962 2963 2963 2963 2959 2959 2958 2956 2957 2957 2956 2956 2958 2958 2959 2958 2958 2958 2955 2954 2948 2946 2943 2939 2936 2934 2932 2930 2928 2924 2919 2915 2909 2904 2899 2894 2889 2884 2879 2875 2870 2864 2860 2854 2848 2844 2839 2835 2832
2949 2949 2949 2950 2952 2952 2953 2953 2951 2950 2946 2947 2947 2947 2947 2948 2949 2950 2950 2949 2949 2949 2948 2945 2942 2940 2937 2934 2931 2929 2926 2923 2920 2917 2913 2908 2903 2899 2893 2888 2883 2878 2873 2868 2863 2857 2851 2847 2843 2837 2831 2826 2821 2818
2940 2940 2941 2940 2941 2943 2943 2939 2939 2939 2937 2937 2937 2939 2940 2942 2943 2943 2944 2943 2942 2941 2939 2938 2934 2930 2928 2925 2923 2919 2916 2913 2909 2905 2900 2896 2892 2888 2883 2877 2872 2866 2860 2854 2847 2842 2837 2832 2827 2822 2817 2812 2807 2803
2930 2930 2930 2930 2931 2932 2933 2932 2932 2931 2933 2932 2933 2933 2935 2937 2937 2937 2938 2937 2936 2934 2931 2927 2925 2922 2920 2917 2915 2912 2909 2905 2900 2896 2892 2888 2883 2878 2873 2866 2858 2851 2846 2840 2834 2828 2824 2819 2815 2810 2805 2801 2798 2794
2920 2921 2920 2922 2924 2925 2925 2926 2927 2926 2927 2927 2929 2930 2930 2931 2931 2932 2931 2928 2926 2923 2922 2920 2918 2916 2913 2911 2908 2904 2901 2898 2894 2888 2884 2880 2875 2868 2862 2856 2848 2840 2834 2831 2825 2819 2814 2810 2806 2801 2798 2794 2791 2787
2914 2915 2916 2919 2919 2919 2919 2919 2920 2921 2921 2922 2923 2923 2924 2924 2924 2922 2920 2919 2917 2915 2915 2914 2912 2910 2907 2904 2901 2899 2896 2892 2888 2881 2873 2868 2864 2860 2853 2847 2840 2832 2826 2821 2816 2811 2807 2803 2799 2795 2792 2788 2785 2781
2913 2913 2913 2912 2913 2914 2914 2914 2916 2917 2917 2917 2917 2916 2915 2916 2914 2912 2912 2910 2910 2909 2909 2908 2906 2904 2902 2899 2896 2892 2887 2883 2878 2873 2866 2860 2855 2851 2846 2839 2833 2825 2819 2814 2810 2806 2803 2798 2794 2790 2787 2783 2780 2777
2908 2907 2908 2906 2906 2909 2908 2910 2911 2911 2910 2910 2909 2909 2908 2908 2908 2906 2905 2905 2905 2904 2903 2903 2901 2899 2895 2892 2889 2885 2880 2875 2869 2863 2857 2852 2846 2841 2836 2830 2826 2822 2815 2809 2804 2800 2797 2793 2789 2785 2781 2778 2775 2773
2902 2901 2902 2902 2903 2904 2905 2905 2904 2905 2904 2904 2903 2904 2905 2904 2902 2902 2901 2901 2901 2900 2898 2896 2894 2892 2888 2885 2880 2875 2871 2865 2860 2855 2850 2845 2840 2834 2829 2823 2818 2813 2808 2803 2799 2796 2792 2788 2784 2780 2776 2774 2771 2769
2895 2896 2898 2899 2899 2899 2899 2899 2899 2899 2899 2899 2900 2901 2901 2900 2900 2900 2899 2897 2896 2894 2891 2889 2887 2883 2879 2875 2872 2869 2865 2860 2855 2851 2846 2840 2836 2831 2826 2820 2814 2809 2804 2800 2795 2793 2790 2786 2781 2777 2773 2770 2769 2768
2891 2892 2894 2893 2894 2894 2894 2895 2895 2895 2895 2896 2897 2897 2898 2897 2897 2895 2893 2892 2890 2887 2886 2884 2882 2878 2873 2868 2864 2862 2859 2856 2853 2849 2845 2840 2836 2830 2824 2819 2814 2809 2804 2800 2796 2793 2789 2784 2779 2774 2771 2769 2767 2766
2886 2887 2888 2888 2889 2889 2891 2892 2891 2892 2892 2893 2894 2893 2893 2892 2891 2890 2889 2888 2886 2884 2882 2880 2877 2873 2870 2867 2863 2859 2856 2851 2847 2843 2838 2834 2829 2824 2819 2815 2811 2806 2802 2799 2795 2791 2788 2783 2778 2775 2771 2769 2767 2766
2882 2883 2884 2885 2886 2887 2887 2888 2889 2889 2890 2890 2889 2890 2889 2888 2887 2887 2886 2885 2883 2881 2878 2874 2871 2869 2867 2864 2861 2858 2854 2849 2844 2840 2834 2829 2823 2818 2814 2811 2808 2804 2800 2797 2793 2790 2786 2782 2778 2774 2772 2770 2768 2766
2880 2880 2882 2883 2884 2886 2886 2887 2887 2886 2886 2887 2887 2887 2886 2886 2886 2886 2884 2882 2879 2876 2874 2872 2870 2867 2864 2860 2856 2852 2848 2845 2841 2836 2832 2827 2820 2815 2811 2808 2805 2802 2799 2796 2793 2790 2786 2782 2779 2776 2773 2771 2769 2767
2878 2880 2881 2882 2882 2883 2884 2885 2884 2884 2885 2885 2884 2885 2885 2885 2883 2882 2880 2878 2877 2874 2872 2870 2867 2864 2861 2858 2855 2850 2846 2842 2837 2833 2828 2823 2818 2813 2810 2807 2805 2801 2798 2795 2792 2789 2786 2783 2780 2777 2774 2772 2770 2767